This demonstration page uses our WeatherBlox Daily Observations layout. Learn more.

Left ArrowRight Arrow

Hourly Observations for September 9, 2021

Temp ( °F °C ) Dew Point ( °F °C ) Humidity (%) Winds ( mph kmh ) Pressure ( in mb ) Visibility ( mi km ) Precip ( " mm )
12:52 am 00:52 Mostly Clear 56 13.3 53 11.7 90 90 NNW 6 9 30.05 1018 10 16 0.00 0.00
1:52 am 01:52 Mostly Clear 55 12.8 52 11.1 90 90 NW 6 9 30.06 1018 10 16 0.00 0.00
2:52 am 02:52 Mostly Clear 56 13.3 52 11.1 87 87 NW 5 7 30.06 1018 10 16 0.00 0.00
3:52 am 03:52 Mostly Clear 56 13.3 53 11.7 90 90 N 7 11 30.06 1018 10 16 0.00 0.00
4:52 am 04:52 Mostly Clear 54 12.2 52 11.1 93 93 NNW 3 6 30.07 1018 10 16 0.00 0.00
5:52 am 05:52 Mostly Clear 53 11.7 52 11.1 96 96 NNW 3 6 30.06 1018 10 16 0.00 0.00
6:52 am 06:52 Partly Cloudy 53 11.7 51 10.6 93 93 N 3 6 30.08 1019 10 16 0.00 0.00
7:52 am 07:52 Mostly Cloudy 55 12.8 52 11.1 90 90 Calm 30.09 1019 10 16 0.00 0.00
8:52 am 08:52 Mostly Sunny 59 15 55 12.8 87 87 N 3 6 30.09 1019 10 16 0.00 0.00
9:52 am 09:52 Mostly Sunny 65 18.3 56 13.3 73 73 Calm 30.07 1018 10 16 0.00 0.00
10:52 am 10:52 Mostly Sunny 72 22.2 56 13.3 57 57 Calm 30.07 1018 10 16 0.00 0.00
11:52 am 11:52 Mostly Sunny 76 24.4 50 10 40 40 SE 5 7 30.06 1018 10 16 0.00 0.00
12:52 pm 12:52 Partly Cloudy 77 25 51 10.6 40 40 SSE 6 9 30.04 1017 10 16 0.00 0.00
1:52 pm 13:52 Partly Cloudy 80 26.7 51 10.6 37 37 ENE 7 11 30.02 1017 10 16 0.00 0.00
2:52 pm 14:52 Partly Cloudy 80 26.7 51 10.6 37 37 Calm 30.00 1016 10 16 0.00 0.00
3:52 pm 15:52 Partly Cloudy 80 26.7 52 11.1 38 38 SE 3 6 29.98 1015 10 16 0.00 0.00
4:52 pm 16:52 Partly Cloudy 81 27.2 51 10.6 35 35 SSE 7 11 29.97 1015 10 16 0.00 0.00
5:52 pm 17:52 Partly Cloudy 81 27.2 53 11.7 38 38 SSE 7 11 29.96 1015 10 16 0.00 0.00
6:52 pm 18:52 Partly Cloudy 77 25 56 13.3 48 48 SE 7 11 29.95 1014 10 16 0.00 0.00
7:52 pm 19:52 Partly Cloudy 74 23.3 58 14.4 57 57 ESE 5 7 29.95 1014 10 16 0.00 0.00
8:52 pm 20:52 Partly Cloudy 72 22.2 58 14.4 61 61 ESE 6 9 29.96 1015 10 16 0.00 0.00
9:52 pm 21:52 Partly Cloudy 70 21.1 57 13.9 64 64 SE 6 9 29.96 1015 10 16 0.00 0.00
10:52 pm 22:52 Partly Cloudy 69 20.6 57 13.9 66 66 SE 6 9 29.96 1015 10 16 0.00 0.00
11:52 pm 23:52 Partly Cloudy 66 18.9 57 13.9 73 73 SE 6 9 29.97 1015 10 16 0.00 0.00

Powered by AerisWeather